Погода в Светлом

Россия / Республика Саха (Якутия)     63°02′59″N   113°25′37″E
темп.,
°C
ветер,
м/с
пор.,
м/с
влажн.,
%
обл.,
%
осадки,
мм/ч
давл.,
гПа
погр.,
м
19 сентября, вс
вс1900:00+2ссв0073100 0.0 101710
03:00+2всв1175100 0.0 101710
06:00+1всв1176100 0.0 101710
09:00+3всв116868 0.0 1016104
12:00+6в11475 0.0 1015649
15:00+8всв114512 0.0 10141014
18:00+7в2359100 0.0 1013130
21:00+4в2669100 0.0 1013134
20 сентября, пн
пн2000:00+2в2972100 0.0 1013215
03:00+1в277679 0.0 1013208
06:00+1в397699 0.0 1012299
09:00+1вюв31073100 0.0 1012364
12:00+3вюв3970100 0.0 1012419
15:00+4юв4765100 0.0 1011469
18:00+5вюв3769100 0.0 1011429
21:00+4вюв2576100 0.0 1010174
21 сентября, вт
вт2100:00+5в2580100 0.0 1009169
03:00+5в3881100 0.0 1008267
06:00+4вюв4128199 0.0 1007371
09:00+4в51478100 0.0 1005477
12:00+8вюв51367100 0.0 1002543
15:00+11вюв51062100 0.0 1001804
18:00+11вюв3968100 0.0 1001440
21:00+9юз3883100 0.0 1003356
22 сентября, ср
ср2200:00+6зюз51088100 0.1 1006683
03:00+5з4980100 0.1 1009659
06:00+3зюз3982100 0.0 1011410
09:00+4зюз3977100 0.0 1013435
12:00+6з3567100 0.0 1014706
15:00+8з3454100 0.0 10151080
18:00+7зюз22626 0.0 101681
21:00+3ю117469 0.0 101810
23 сентября, чт
чт2300:00+2зюз1180100 0.0 101810
03:00+1юз1190100 0.0 102010
06:00+1юз1190100 0.0 102110
09:00+3юз117899 0.0 102199
12:00+4з2283100 0.0 1022557
15:00+3зюз1295100 0.1 1022363
18:00+4юз129174 0.1 1023346
21:00+2ююз119599 0.1 102310